Погода в Вильнюсе

Погода в Вильнюсе : погода сейчас, прогноз погоды и архив. Всё, что Вы хотите узнать о погоде в Вильнюсе!

Поиск расширенной информации на нашем сайте:

Другие новости

Новости СМИ2

Главная страница сайта

Новости сайта

03.07.2017

Напоминаем, что на нашем специализированном сайте Метеоцентр.Азия вы можете получить высокодетализированные автоматические прогнозы погоды по пунктам России, СНГ и мира в авиационном формате (включающие направление и скорость ветра, видимость, явления погоды, количество и форму облачности, нижнюю и верхнюю границу облачности).


Погода в Вильнюсе - сегодня

Время (UTC), дата Ветер
(°,м/с) 
Видим.   Явления Облачность Т
(°С)
Тd
(°С)
f(%) Тe
(°С)
Pmin
(гПа)
dP
(гПа)
Po
(мм)
O2
(г/м3)
Тmin Tmax R s Состояние
почвы
21 24.05.18 330 (СЗ) 1-3{06}  20000 м    1/0 средняя 
[Ac trans]
+14.5 +10 74 +17  1023.5  0.2  754  287           
00 25.05.18 350 (С) 1-3{04}  20000 м  {ливн. осадки}  ясно 
+12.8 +10.9 88 +16  1023.7  0.1  754  288      0.0     
03 25.05.18 тихо () -3{04}  20000 м    ясно 
+12.2 +10.6 90 +14  1024  0.3  754  289           
06 25.05.18 080 (В) 3-6{06}  20000 м    ясно 
+17.4 +12.2 72 +22  1024.3  0.6  754  283  +11.8    0.0    влажная 
09 25.05.18 080 (В) 4-9{10}  20000 м    3/3 1000 м 
[Cu hum]
+22.5 +12.7 54 +27  1023.9  754  278           
12 25.05.18 090 (В) 4-9{11}  20000 м    5/5 1500 м 
[Cu med, cong]
+23.7 +12.1 48 +28  1023.5  -0.3  754  277           
15 25.05.18 110 (В) 2-3{09}  20000 м    5/3 1500 м средняя 
[Cu med, cong|Ac trans]
+23.7 +11 45 +26  1023.6  754  278           
18 25.05.18 070 (В) 2-4{09}  20000 м    3/0 средняя 
[Ac trans]
+23 +10.5 45 +25  1024.2  0.5  754  279    +25       
21 25.05.18 080 (В) 2-4{06}  20000 м    ясно 
+19.1 +10.9 59 +22  1025.8  1.4  755  283           
00 26.05.18 090 (В) 2-4{07}  20000 м    ясно 
+17.1 +10.7 66 +20  1027  756  285           
03 26.05.18 080 (В) 1-3{04}  20000 м    ясно 
+15.1 +10.7 75 +18  1027.7  0.6  757  287           
06 26.05.18 120 (ЮВ) 3-4{06}  20000 м    1/0 верхняя 
[Ci fib]
+19 +11.8 63 +23  1027.7  0.3  757  283  +15        сухая 
15 26.05.18 120 (ЮВ) 4-7{09}  20000 м    4/1 1500 м верхняя 
[Cu hum|Ci]
+24.6 +9.7 39 +25  1025.4  -1.4  755  278           
18 26.05.18 120 (ЮВ) 1-4{08}  20000 м    3/0 верхняя 
[Ci fib]
+21.6 +9 44 +22  1026  0.4  756  281    +25.1       
21 26.05.18 120 (ЮВ) 1-3{05}  20000 м    ясно 
+17.3 +8.4 56 +19  1026.9  0.6  756  285           
00 27.05.18 130 (ЮВ) 2-4{04}  20000 м    ясно 
+14.3 +7.7 64 +15  1027.1  756  288           
03 27.05.18 140 (ЮВ) 2-3{05}  20000 м    ясно 
+12.8 +6.5 65 +13  1027  -0.1  756  290           
06 27.05.18 180 (Ю) 2-3{05}  20000 м    4/0 верхняя 
[Ci]
+17.5 +8.1 54 +18  1026.8  0.1  756  285  +12.5        сухая 
09 27.05.18 100 (В) 2-6{06}  18000 м    3/0 верхняя 
[Ci fib]
+23.5 +7.8 37 +24  1026.4  -0.1  756  279           
12 27.05.18 120 (ЮВ) 2-4{06}  20000 м    3/1 1500 м верхняя 
[Cu hum|Ci fib]
+25.3 +6.8 31 +25  1025.2  -1  755  277           
15 27.05.18 140 (ЮВ) 1-3{05}  19000 м    3/1 1500 м верхняя 
[Cu hum|Ci fib]
+26 +7.1 30 +26  1023.9  -1.2  754  276           
18 27.05.18 010 (С) 1-3{06}  20000 м    ясно 
+23.5 +9 40 +24  1024.2  0.1  755  278    +26.7       
21 27.05.18 тихо () -1{03}  20000 м    ясно 
+16.9 +9.4 61 +17  1025.9  1.2  755  285           
03 28.05.18 тихо () -0{02}  20000 м    ясно 
+11.7 +9.3 85 +12  1027  0.3  756  290           
06 28.05.18 тихо () -2{02}  20000 м    ясно 
+21.5 +10.5 49 +23  1027.1  0.8  757  281  +11.6        сухая 
Время (UTC), дата Ветер
(°,м/с) 
Видим.   Явления Облачность Т
(°С)
Тd
(°С)
f(%) Тe
(°С)
Pmin
(гПа)
dP
(гПа)
Po
(мм)
O2
(г/м3)
Тmin Tmax R s Состояние
почвы

Для получения пояснительной информации подведите курсор к названию столбца.

ПОГОДА в Вильнюсе - архив

Всё, что Вы хотите узнать о погоде в Вильнюсе - удобно и подробно!

Выберите нужную дату (начиная с 1 января 2015* года) и нажмите кнопку "Найти".
Будут отображены архивные сводки погоды по пункту Вильнюс, начиная с указанной даты.


Отображать данные в формате CSV (для использования в таблицах Excel)


Внимание! Наш архив погоды предназначен исключительно для личного некоммерческого использования в познавательных целях. Если Вам необходимы официальные справки о состоянии погоды (для производственных, юридических, коммерческих и т.п. целей), обращайтесь в органы Росгидромета.

*Примечание: данная дата относится к архиву по метеостанциям СССР (Россия, СНГ, Балтия).
Архив по метеостанциям Зарубежной Европы и Азии (кроме Китая) хранится 10 дней, по другим регионам земного шара (Китай, Африка, Америка, Австралия, Океания) - 1 день.

Вильнюс - район местоположения метеостанции


Название, широта, долгота, высота метеостанции:
Вильнюс 54.6°ш. 25.1°д. 156 м над ур. моря [Литва]

Дополнительная информация

В oтличие oт бoльшинства пoгoдных сайтoв мы публикуем пoдрoбную метеoинфoрмацию в детальнoм прoфессиoнальнoм фoрмате.

Характеристики температуры и влажнoсти вoздуха измеряются на высoте 2 м в тени вдали oт зданий и деревьев.
Скoрoсть ветра измеряется на высoте 10 м (на урoвне рoста челoвека скoрoсть ветра ниже в 1.5-2 раза). Если метеoстанция нахoдится в гoрoде или в лесу, тo скoрoсть ветра занижена на 2-4 м/с пo сравнению с oткрытым местoм. Скoрoсть ветра над акватoриями крупных рек и oзёр, а также на вершинах хoлмoв на 2-5 м/с выше, чем в oбычных услoвиях.
Атмoсфернoе давление в разных тoчках местнoсти мoжет значительнo oтличаться oт давления на метеoстанции, в зависимoсти oт услoвий рельефа (при пoдъёме на 10 м давление пoнижается примернo на 1 мм рт.ст.).